"Pseudo-MPEC" for ST22KA2

Created 2022 Nov 27 16:22:24 UT using Find_Orb

Click here for an explanation of pseudo-MPECs

 
 Astrometry: 
     ST22KA2* C2022 11 22-6vC3'hk$=,jjhnLRL;3kGR`KSp8Astrometry\faLb*_CLPi7lZU68
     ST22KA2  C2022 11 22%:`1g!x2#QrN^Cg8Y-y,o)kl0vnygredacted;:YclickFU@WvuUU68
     ST22KA2  C2022 11 22.x`Z'DWH\7U5hereC$?hJ)dfor?(+YbQ4\b01rrdXSEW0mmG)DZ3U68
     ST22KA2  C2022 11 22*+Q#g7])hKeexplanationQ6QI.;[;:lLa:McwLwS9[8D_%[v/$GU68

Station data:
(U68) JPL SynTrack Robotic Telescope, Auberry  (N37.070387 W119.412990)
   US/California.  Observers N. Saini, C. Zhai, R. Trahan, M. Zhan, M. Shao.
   0.28-m f/2.2 Schmidt + CCD.

Orbital elements:  ST22KA2
   Perihelion 2022 Sep 26.49316 +/- 59.9 TT = 11:50:09 (JD 2459848.99316)
Epoch 2022 Nov 22.0 TT = JDT 2459905.5   Earth MOID: 0.0014   AutoNEOCP
M  46.88121360 +/- 80               (J2000 ecliptic)
n   0.82965558 +/- 0.777            Peri.  292.74090 +/- 70
a   1.12168476 +/- 0.7              Node    59.04882 +/- 2.6
e   0.2112983 +/- 0.202             Incl.    6.20945 +/- 56
P   1.19/433.91d           H 27.8   G  0.15   U 12.6  SR
q 0.88467458 +/- 0.305    Q 1.35869494 +/- 8.24
From 4 observations 2022 Nov. 22 (35.2 min); mean residual 0".46
Residuals in arcseconds: 
221122 U68  .18-  .37+    221122 U68  .76+  .43-    
221122 U68  .09+  .35-    221122 U68  .66-  .42+    

Ephemerides (geocentric):
Date (UTC) HH   RA             Dec           delta  r     elong  mag " sig PA
---- --------  ------------   ------------  ------ ------ -----  --- --------
2022 11 27 16  05 01 22.723   +48 40 34.47  .02815 1.0114 150.8 21.3  26d 143
2022 11 27 17  05 00 58.474   +48 41 36.59  .02831 1.0116 150.8 21.4  26d 143
2022 11 27 18  05 00 34.475   +48 42 37.57  .02847 1.0117 150.8 21.4  26d 142
2022 11 27 19  05 00 10.725   +48 43 37.44  .02863 1.0119 150.9 21.4  26d 142
2022 11 27 20  04 59 47.218   +48 44 36.22  .02879 1.0120 150.9 21.4  26d 142
2022 11 27 21  04 59 23.952   +48 45 33.93  .02895 1.0121 150.9 21.4  26d 142
2022 11 27 22  04 59 00.923   +48 46 30.60  .02910 1.0123 151.0 21.4  26d 142
2022 11 27 23  04 58 38.127   +48 47 26.23  .02926 1.0124 151.0 21.4  26d 142
2022 11 28 00  04 58 15.561   +48 48 20.86  .02942 1.0126 151.0 21.4  26d 142
2022 11 28 01  04 57 53.222   +48 49 14.50  .02958 1.0127 151.0 21.4  26d 142
2022 11 28 02  04 57 31.107   +48 50 07.17  .02974 1.0128 151.1 21.5  26d 142
2022 11 28 03  04 57 09.212   +48 50 58.89  .02990 1.0130 151.1 21.5  26d 142
2022 11 28 04  04 56 47.535   +48 51 49.67  .03006 1.0131 151.1 21.5  26d 142
2022 11 28 05  04 56 26.072   +48 52 39.55  .03022 1.0133 151.1 21.5  26d 142
2022 11 28 06  04 56 04.820   +48 53 28.52  .03038 1.0134 151.2 21.5  26d 141
2022 11 28 07  04 55 43.777   +48 54 16.61  .03054 1.0135 151.2 21.5  26d 141
2022 11 28 08  04 55 22.939   +48 55 03.84  .03070 1.0137 151.2 21.5  26d 141
2022 11 28 09  04 55 02.303   +48 55 50.22  .03086 1.0138 151.2 21.5  26d 141
2022 11 28 10  04 54 41.868   +48 56 35.77  .03102 1.0140 151.3 21.5  26d 141
2022 11 28 11  04 54 21.630   +48 57 20.50  .03118 1.0141 151.3 21.6  26d 141
2022 11 28 12  04 54 01.586   +48 58 04.43  .03134 1.0142 151.3 21.6  26d 141
2022 11 28 13  04 53 41.734   +48 58 47.57  .03151 1.0144 151.3 21.6  26d 141
2022 11 28 14  04 53 22.071   +48 59 29.93  .03167 1.0145 151.4 21.6  26d 141
2022 11 28 15  04 53 02.595   +49 00 11.54  .03183 1.0147 151.4 21.6  26d 141
2022 11 28 16  04 52 43.303   +49 00 52.39  .03199 1.0148 151.4 21.6  26d 141
2022 11 28 17  04 52 24.192   +49 01 32.52  .03215 1.0149 151.4 21.6  26d 141
2022 11 28 18  04 52 05.261   +49 02 11.92  .03231 1.0151 151.4 21.6  26d 141
2022 11 28 19  04 51 46.507   +49 02 50.62  .03247 1.0152 151.5 21.6  26d 141
2022 11 28 20  04 51 27.927   +49 03 28.62  .03263 1.0154 151.5 21.7  26d 141
2022 11 28 21  04 51 09.520   +49 04 05.94  .03279 1.0155 151.5 21.7  26d 140
2022 11 28 22  04 50 51.283   +49 04 42.59  .03295 1.0156 151.5 21.7  26d 140
2022 11 28 23  04 50 33.214   +49 05 18.58  .03311 1.0158 151.5 21.7  26d 140
2022 11 29 00  04 50 15.310   +49 05 53.92  .03327 1.0159 151.6 21.7  26d 140
2022 11 29 01  04 49 57.570   +49 06 28.62  .03343 1.0161 151.6 21.7  26d 140
2022 11 29 02  04 49 39.991   +49 07 02.69  .03359 1.0162 151.6 21.7  26d 140
2022 11 29 03  04 49 22.571   +49 07 36.15  .03376 1.0163 151.6 21.7  26d 140
2022 11 29 04  04 49 05.309   +49 08 09.00  .03392 1.0165 151.6 21.7  26d 140
2022 11 29 05  04 48 48.202   +49 08 41.26  .03408 1.0166 151.6 21.7  26d 140
2022 11 29 06  04 48 31.249   +49 09 12.93  .03424 1.0168 151.7 21.8  26d 140
2022 11 29 07  04 48 14.446   +49 09 44.03  .03440 1.0169 151.7 21.8  26d 140
2022 11 29 08  04 47 57.794   +49 10 14.56  .03456 1.0170 151.7 21.8  26d 140
2022 11 29 09  04 47 41.289   +49 10 44.53  .03472 1.0172 151.7 21.8  26d 140
2022 11 29 10  04 47 24.930   +49 11 13.95  .03488 1.0173 151.7 21.8  26d 140
2022 11 29 11  04 47 08.714   +49 11 42.83  .03505 1.0175 151.7 21.8  27d 140
2022 11 29 12  04 46 52.641   +49 12 11.18  .03521 1.0176 151.8 21.8  27d 140
2022 11 29 13  04 46 36.709   +49 12 39.01  .03537 1.0178 151.8 21.8  27d 140
2022 11 29 14  04 46 20.915   +49 13 06.33  .03553 1.0179 151.8 21.8  27d 140
2022 11 29 15  04 46 05.258   +49 13 33.14  .03569 1.0180 151.8 21.8  27d 140